Location: Lake Arresoe
(56.0000°N, 12.5000°E)
Time: 14:46:58
(UTC+01:00)

Cosmos 2058 - Pass Details

Date: 16 October 2019
Orbit: 563 x 583 km, 82.5° (Epoch: 13 November)

Event Time Altitude Azimuth Distance (km) Brightness Sun altitude
Rises 19:10:46 0° 355° (N) 2,823 6.5 -9.5°
Reaches altitude 10° 19:13:30 10° 13° (NNE) 1,919 5.4 -9.9°
Maximum altitude 19:16:37 20° 60° (ENE) 1,395 4.4 -10.4°
Enters shadow 19:18:33 15° 94° (E) 1,613 4.5 -10.6°
